FW8347 Weather Reports


Display with metric or nautical units.
time (UTC)temp
F
wind
direction
speed
MPH
gust
MPH
rain 1hr
in
rain 24hr
in
rain mn
in
humidity
%
barometer
mb
20260510224542 50 310 11.0 18.0 0.00 0.12 0.00 63 1017.8
20260510223045 48 360 5.0 10.0 0.00 0.12 0.00 70 1017.8
20260510221551 48 360 4.0 8.0 0.00 0.12 0.00 73 1017.9
20260510220045 48 360 6.0 9.0 0.00 0.12 0.00 73 1017.8
20260510214542 48 360 7.0 11.0 0.00 0.12 0.00 72 1017.7
20260510213043 48 360 11.0 13.0 0.00 0.12 0.00 72 1017.6
20260510211549 48 323 13.0 16.0 0.00 0.12 0.00 71 1017.3
20260510210048 48 327 13.0 17.0 0.00 0.12 0.00 71 1017.3
20260510204547 48 332 14.0 18.0 0.00 0.12 0.00 69 1017.3
20260510203041 49 329 15.0 20.0 0.00 0.12 0.00 69 1017.1
20260510201552 49 316 16.0 21.0 0.00 0.12 0.00 69 1016.8
20260510200045 49 307 17.0 21.0 0.00 0.12 0.00 67 1016.6
20260510194552 49 360 17.0 21.0 0.00 0.12 0.00 69 1016.8
20260510193050 49 360 17.0 21.0 0.00 0.12 0.00 69 1016.8
20260510191552 49 360 16.0 20.0 0.00 0.12 0.00 69 1016.8
20260510190101 48 360 19.0 22.0 0.00 0.12 0.00 68 1016.8
20260510184543 48 360 20.0 26.0 0.00 0.12 0.00 68 1016.7
20260510183049 47 360 21.0 26.0 0.00 0.12 0.00 71 1016.5
20260510181548 47 304 14.0 20.0 0.00 0.12 0.00 73 1016.5
20260510180100 47 360 19.0 24.0 0.00 0.12 0.00 75 1016.2
20260510174541 46 309 18.0 24.0 0.00 0.12 0.00 75 1016.0
20260510173048 46 360 20.0 24.0 0.00 0.12 0.00 74 1015.9
20260510171554 46 360 16.0 21.0 0.00 0.12 0.00 75 1015.8
20260510170049 46 360 18.0 24.0 0.00 0.12 0.00 76 1015.7
20260510164601 46 313 17.0 22.0 0.00 0.12 0.00 75 1015.7
20260510163057 46 360 19.0 22.0 0.00 0.12 0.00 74 1015.6
20260510161545 46 360 17.0 21.0 0.00 0.12 0.00 76 1015.5
20260510160048 46 327 16.0 21.0 0.00 0.12 0.00 76 1015.5
20260510154542 46 360 17.0 22.0 0.00 0.12 0.00 75 1015.5
20260510153057 46 360 17.0 23.0 0.00 0.12 0.00 76 1015.4
20260510151600 46 360 16.0 23.0 0.00 0.12 0.00 78 1015.3
20260510150057 46 360 14.0 17.0 0.00 0.12 0.00 79 1015.0
20260510144546 46 360 15.0 20.0 0.00 0.12 0.00 79 1014.7
20260510143057 45 360 15.0 19.0 0.00 0.12 0.00 78 1014.6
20260510141555 45 360 14.0 19.0 0.00 0.12 0.00 76 1014.5
20260510140039 45 360 17.0 20.0 0.00 0.12 0.00 77 1014.1
20260510134547 46 360 13.0 21.0 0.00 0.12 0.00 77 1013.9
20260510133045 45 360 16.0 21.0 0.00 0.12 0.00 77 1013.6
20260510131554 46 319 17.0 20.0 0.00 0.12 0.00 76 1013.7
20260510130045 46 360 14.0 21.0 0.00 0.12 0.00 78 1013.6
20260510124542 46 360 16.0 20.0 0.00 0.12 0.00 79 1013.4
20260510123045 46 360 14.0 18.0 0.00 0.12 0.00 79 1013.3
20260510121545 46 360 11.0 15.0 0.00 0.12 0.00 79 1013.1
20260510120043 46 360 15.0 20.0 0.00 0.12 0.00 80 1013.0
20260510114545 46 360 14.0 17.0 0.00 0.12 0.00 80 1012.7
20260510113047 46 360 15.0 20.0 0.00 0.12 0.00 79 1012.5
20260510111547 48 360 15.0 23.0 0.00 0.12 0.00 78 1012.0
20260510110049 48 360 7.0 11.0 0.00 0.12 0.00 76 1011.4
20260510104548 48 277 6.0 10.0 0.00 0.12 0.00 73 1010.9
20260510103042 48 360 7.0 11.0 0.00 0.12 0.00 72 1010.9
20260510101548 47 360 4.0 9.0 0.00 0.12 0.00 78 1010.3
20260510100106 46 360 6.0 11.0 0.00 0.12 0.00 85 1010.0
20260510094555 46 360 10.0 14.0 0.00 0.12 0.00 85 1010.1
20260510093044 46 360 8.0 14.0 0.00 0.12 0.00 84 1009.8
20260510091542 47 360 11.0 15.0 0.00 0.12 0.00 86 1009.7
20260510090047 47 302 13.0 18.0 0.00 0.12 0.00 87 1009.6
20260510084607 47 360 9.0 13.0 0.00 0.12 0.00 89 1009.3
20260510083046 48 360 7.0 12.0 0.00 0.12 0.00 88 1009.2
20260510081551 49 360 6.0 10.0 0.00 0.12 0.00 88 1009.0
20260510080043 48 360 8.0 12.0 0.00 0.12 0.00 90 1008.9
20260510074545 48 360 8.0 10.0 0.00 0.12 0.00 91 1008.6
20260510073052 48 298 8.0 13.0 0.00 0.12 0.00 90 1008.3
20260510071546 48 360 7.0 10.0 0.00 0.12 0.00 88 1008.2
20260510070050 49 360 8.0 15.0 0.00 0.12 0.00 86 1007.9
20260510064540 52 360 4.0 11.0 0.00 0.12 0.00 86 1007.9
20260510063050 52 360 6.0 10.0 0.00 0.12 0.00 86 1007.5
20260510061547 51 233 8.0 13.0 0.00 0.12 0.00 88 1007.4
20260510060050 51 190 6.0 11.0 0.00 0.12 0.00 87 1007.2
20260510054543 51 360 8.0 11.0 0.00 0.12 0.00 87 1007.1
20260510053045 52 360 7.0 12.0 0.00 0.12 0.00 86 1006.9
20260510051545 52 360 9.0 14.0 0.00 0.12 0.00 86 1006.7
20260510050048 52 360 8.0 12.0 0.00 0.12 0.00 86 1007.0
20260510044546 52 360 7.0 11.0 0.00 0.12 0.00 86 1006.8
20260510043048 52 360 5.0 10.0 0.00 0.12 0.00 86 1006.8
20260510041539 52 360 5.0 10.0 0.00 0.12 0.00 86 1006.7
20260510040052 52 360 8.0 14.0 0.00 0.12 0.00 86 1006.5
20260510034548 52 360 9.0 13.0 0.00 0.12 0.12 86 1006.1
20260510033100 53 360 7.0 13.0 0.00 0.12 0.12 86 1005.9
20260510031547 53 360 6.0 13.0 0.00 0.12 0.12 86 1005.6
20260510030047 53 360 7.0 15.0 0.00 0.12 0.12 86 1005.7
20260510024540 54 360 9.0 14.0 0.00 0.12 0.12 86 1005.5
20260510023045 54 360 10.0 15.0 0.01 0.12 0.12 85 1005.5
20260510021544 54 360 9.0 15.0 0.02 0.12 0.12 85 1005.2
20260510020047 54 360 6.0 20.0 0.05 0.12 0.12 87 1005.5
20260510014548 52 360 10.0 16.0 0.12 0.12 0.12 91 1004.8
20260510013048 51 360 8.0 12.0 0.11 0.11 0.11 93 1005.2
20260510011546 48 269 9.0 17.0 0.10 0.10 0.10 91 1005.7
20260510010045 49 288 15.0 25.0 0.07 0.07 0.07 90 1005.9
20260510004543 50 275 20.0 33.0 0.00 0.00 0.00 84 1005.9
20260510003045 62 282 6.0 10.0 0.00 0.00 0.00 66 1004.9
20260510001543 63 195 6.0 9.0 0.00 0.00 0.00 64 1003.5
20260509234554 64 186 4.0 8.0 0.00 0.00 0.00 61 1003.4
20260509233047 65 198 5.0 9.0 0.00 0.00 0.00 60 1003.2
20260509231548 65 185 6.0 11.0 0.00 0.00 0.00 59 1002.9
20260509230048 65 210 7.0 14.0 0.00 0.00 0.00 58 1003.2